Location: Ch�ze
(42.9000°N, 0.0333°W)
Time: 18:56:47
(UTC+00:00)

IRS-1C Rocket - Pass Details

Date: 24 January 2021
Orbit: 801 x 805 km, 99.0° (Epoch: 08 March)

Event Time Altitude Azimuth Distance (km) Brightness Sun altitude
Rises 17:44:23 0° 144° (SE) 3,298 7.1 -7.9°
Reaches altitude 10° 17:46:48 10° 137° (SE) 2,372 6.3 -8.3°
Maximum altitude 17:51:42 42° 68° (ENE) 1,140 4.4 -9.2°
Drops below altitude 10° 17:56:37 10° 359° (N) 2,387 6.4 -10.0°
Sets 17:59:03 0° 353° (N) 3,322 7.2 -10.5°
